Regional Weather Roundup
Issued by NWS Goodland, KS

Home | Current Version | Previous Version | Text Only | Print | Product List | Glossary Off
Versions: 1 2 3 4 5 6 7 8 9 10 11 12 13 14 15 16 17 18 19 20 21 22 23 24 25 26 27 28 29 30 31 32 33 34 35 36 37 38 39 40 41 42 43 44 45 46 47 48 49 50

108
ASUS43 KGLD 211059
RWRGLD

GOODLAND FORECAST AREA HOURLY WEATHER ROUNDUP
NATIONAL WEATHER SERVICE GOODLAND KS
400 AM MST TUE FEB 21 2017

...OFFICIAL OBSERVATIONS...

CITY           SKY/WX    TMP DP  RH WIND       PRES   REMARKS
GOODLAND KS    CLOUDY    43  14  31 SW17      29.99S
HILL CITY KS   CLOUDY    28  24  85 SW5       30.02R
IMPERIAL NEB   CLOUDY    37  18  46 SW6       29.96S
MCCOOK NEB     CLOUDY    30  22  72 W8        29.98S
AKRON CO       CLOUDY    43  12  28 W17       29.98R
BURLINGTON CO  CLOUDY    38  14  37 SW10      30.00S
LIMON CO       CLOUDY    21  12  68 N7        30.04R
$$

...UNOFFICIAL OBSERVATIONS...

CITY           SKY/WX    TMP DP  RH WIND       PRES   REMARKS
LENORA KS        N/A     39  32  76 SW9         N/A
NORTON KS      CLEAR     34  21  60 SW10      29.98F
SHARON SPRINGS   N/A     38  17  42 SW13        N/A
TRENTON NEB      N/A     36  32  85 W5          N/A
KIT CARSON CO    N/A     30  14  51 CALM        N/A
YUMA CO        FAIR      32  14  47 W7        29.97S
$$




USA.gov is the U.S. government's official web portal to all federal, state and local government web resources and services.